Location: Bennemühlen
(52.5740°N, 9.7135°E)
Time: 01:16:25
(UTC+00:00)

A-11 Canister half - Pass Details

Date: 21 February 2026
Orbit: 1512 x 1687 km, 47.2° (Epoch: 8 March)

Event Time Altitude Azimuth Distance (km) Brightness Sun altitude
Rises 23:26:17 0° 274° (W) 4,928 11.7 -47.7°
Enters shadow 23:28:44 - 272° (W) 4,169 11.3 -47.7°
Reaches altitude 10° 23:29:32 10° 271° (W) 3,926 - -47.7°
Maximum altitude 23:39:17 59° 196° (SSW) 1,847 - -47.7°
Drops below altitude 10° 23:48:42 10° 121° (ESE) 3,794 - -47.6°
Sets 23:51:47 0° 117° (ESE) 4,754 - -47.6°
